Location: Ffm
(50.0000°N, 8.5000°E)
Time: 10:42:15
(UTC+01:00)

Envisat - Pass Details

Date: 03 November 2020
Orbit: 764 x 766 km, 98.1° (Epoch: 03 December)

Event Time Altitude Azimuth Distance (km) Brightness Sun altitude
Rises 18:16:27 0° 193° (SSW) 3,220 6.5 -12.8°
Reaches altitude 10° 18:18:59 10° 203° (SSW) 2,298 5.9 -13.2°
Maximum altitude 18:23:28 31° 266° (W) 1,311 5.0 -13.9°
Drops below altitude 10° 18:28:00 10° 328° (NNW) 2,313 5.8 -14.6°
Sets 18:30:34 0° 339° (NNW) 3,244 6.4 -15.0°
